BREEZE-M R/B, 37870

Orbit data source: Space-Track

BREEZE-M R/B, 37870 is space debris in MEO originally from a launch on Fri, 04 Nov 2011 UTC launched from the Tyuratam Missile And Space Complex (TTMTR). Debris objects in space refer to the collection of defunct objects orbiting the Earth. Examples of debris include non-operational satellites, rocket bodies, and fragments generated from explosions, collisions, or faulty payload assembly.

Loading next visibility...
Identifier
37870, 2011-064D
Orbit
MEO
Country
Flag of CISCIS
Related business
Manufacturer
Khrunichev
Mission
Spacecraft
Bus & Motor
BRIZ, Unknown motor
Mass
~1,600 kg wet, 1,600 kg dry
Launch date (UTC)
2011-11-04 (14 years ago)
Launch vehicle
Unknown
Launch site
Tyuratam Missile And Space Complex (TTMTR)
Object type
Payload
Rocket body
Debris
Shape & HBR
Cyl, 2.0 m
Radar Cross Section
14.451 m², Large (>1 m²)

Expand to show TLE details & history
Last TLE update: 1 day ago

TLE from 1 day ago
0 BREEZE-M R/B
1 37870U 11064D   25258.02475419  .00000010  00000-0  00000-0 0  9992
2 37870  65.5520  58.6972 0260859 296.1451  61.1982  2.25566885114151
Epoch: 2025-09-15T00:35Z
TLE epoch observation values (Epoch: 2025-09-15T00:35:38.762Z)
Latitude
-0.0153°
Longitude
55.53283°
Altitude
17,885.928 km
Speed
4.078 km/s
True Right ascension
03h 54m 43s
True Declination
0° 00' 55"
Sunlit
Object was in daylight at epoch
Visualization orbit readout
Latitude
Unknown
Longitude
Unknown
Altitude
Unknown
Speed
Unknown
Apparent Right ascension
Unknown
Apparent Declination
Unknown
Sunlit
N/A
Visualization observer readout
Local Sidereal Time
18:53:34
Azimuth
Unknown
Elevation
Unknown
Doppler factor
Unknown
Orbital elements
Apogee altitude
18,821.515 km
Perigee altitude
17,540.228 km
Semi-major axis
24,559.009 km
Eccentricity
0.02609
Inclination
65.552°
RAAN
58.6972°
Arg. of periapsis
296.1451°
True anomaly
63.85845°
Mean anomaly
61.1982°
Eccentric anomaly
62.52423°
Mean motion
0.56393 °/min
Orbital period
638.37 mins
BSTAR
0
Loading maneuver chart data...
Computing Atmospheric mass density...
Loading historical data...
Loading historical data...
Loading historical data...
Loading historical data...
Loading historical data...
Loading historical data...
Loading historical data...

Documentation

Showing up to 5 results
|